Change the Weather History Date:

Sunday, November 6, 2011

  Actual Average Record
Temperature  
Mean Temperature 40 °F -  
Max Temperature 52 °F 37 °F 52 °F (2011)
Min Temperature 28 °F 23 °F 16 °F (2012)
Degree Days  
Heating Degree Days 25    
Moisture  
Dew Point 22 °F    
Average Humidity 60    
Maximum Humidity 83    
Minimum Humidity 23    
Precipitation  
Precipitation 0.00 in - - ()
Sea Level Pressure  
Sea Level Pressure 30.28 in    
Wind  
Wind Speed 4 mph (SW)    
Max Wind Speed 8 mph    
Max Gust Speed 21 mph    
Averages and records for this station are not official NWS values.
T = Trace of Precipitation, MM = Missing Value Source: NWS Daily Summary

Daily Weather History Graph

Daily Weather History Graph

Search for Another Location

Airport or City:

Trip Planner

Search our weather history database for the weather conditions in past years. The results will help you decide how hot, cold, wet, or windy it might be!

Date:

Astronomy

Nov. 06, 2011 Rise Set
Actual Time 6:26 AM EST 4:16 PM EST
Civil Twilight 5:54 AM EST 4:48 PM EST
Nautical Twilight 5:18 AM EST 5:23 PM EST
Astronomical Twilight 4:43 AM EST 5:59 PM EST
Moon 2:08 PM EST (11/6) 2:18 AM EST (11/6)
Length of Visible Light 10h 53m
Length of Day
9h 49m
Waxing Gibbous, 85% of the Moon is Illuminated
Nov 6
Waxing Gibbous
Nov 10
Full
Nov 18
Last Quarter
Nov 25
New
Dec 2
First Quarter

Hourly Weather History & Observations

Time (EST) Temp. Windchill Dew Point Humidity Pressure Visibility Wind Dir Wind Speed Gust Speed Precip Events Conditions
12:25 AM 29.5 °F 25.9 °F 25.0 °F 83% 30.38 in - Variable 3.5 mph - 0.00 in   Unknown
1:25 AM 30.2 °F 23.4 °F 25.0 °F 81% 30.36 in - Variable 6.9 mph 17.3 mph N/A   Unknown
1:25 AM 30.0 °F 26.5 °F 24.4 °F 80% 30.36 in - Variable 3.5 mph 16.1 mph N/A   Unknown
2:25 AM 28.8 °F 25.0 °F 23.4 °F 80% 30.35 in - Variable 3.5 mph - N/A   Unknown
3:25 AM 28.9 °F - 23.5 °F 80% 30.34 in - Calm Calm - N/A   Unknown
4:25 AM 30.7 °F 26.0 °F 23.2 °F 74% 30.35 in - Variable 4.6 mph - N/A   Unknown
5:25 AM 31.6 °F - 22.5 °F 69% 30.33 in - Calm Calm - N/A   Unknown
6:25 AM 32.4 °F 26.9 °F 23.0 °F 68% 30.33 in - Variable 5.8 mph 15.0 mph N/A   Unknown
7:25 AM 33.6 °F 29.4 °F 23.0 °F 65% 30.33 in - Variable 4.6 mph 13.8 mph N/A   Unknown
8:25 AM 37.0 °F 31.0 °F 22.5 °F 56% 30.31 in - SW 8.1 mph 19.6 mph N/A   Unknown
9:25 AM 41.9 °F 39.0 °F 23.9 °F 49% 30.32 in - Variable 4.6 mph 17.3 mph N/A   Unknown
10:25 AM 44.1 °F 39.5 °F 21.9 °F 42% 30.32 in - SW 8.1 mph 17.3 mph N/A   Unknown
11:25 AM 46.8 °F - 20.7 °F 36% 30.28 in - WSW 8.1 mph 17.3 mph N/A   Unknown
12:25 PM 50.0 °F - 20.8 °F 32% 30.25 in - Variable 3.5 mph 18.4 mph N/A   Unknown
1:25 PM 50.9 °F - 20.7 °F 30% 30.23 in - Variable 6.9 mph 20.7 mph N/A   Unknown
2:25 PM 52.0 °F - 16.7 °F 25% 30.22 in - SW 8.1 mph 17.3 mph N/A   Unknown
3:25 PM 50.2 °F - 13.8 °F 23% 30.22 in - Variable 6.9 mph 15.0 mph N/A   Unknown
4:25 PM 38.7 °F - 22.6 °F 53% 30.21 in - Calm Calm - N/A   Unknown
5:25 PM 38.3 °F - 19.6 °F 47% 30.22 in - Calm Calm - 0.00 in   Unknown
6:25 PM 33.6 °F - 22.3 °F 63% 30.21 in - Calm Calm - N/A   Unknown
7:25 PM 32.4 °F - 22.6 °F 67% 30.21 in - Calm Calm - N/A   Unknown
8:25 PM 31.3 °F - 24.3 °F 75% 30.22 in - Variable 2.3 mph - N/A   Unknown
9:25 PM 30.2 °F - 22.1 °F 72% 30.21 in - Calm Calm - 0.00 in   Unknown
10:25 PM 28.9 °F - 24.3 °F 83% 30.20 in - Calm Calm - N/A   Unknown